{"data":{"norad_id":29494,"epoch":"2026-05-25T05:30:18.724032Z","epoch_age_seconds":51846,"freshness":"FRESH","line1":"1 29494U 06043A   26145.22938338 -.00000115  00000+0  00000+0 0  9993","line2":"2 29494   2.3639  81.1674 0004843 354.5962 148.4373  1.00271542 51157","mean_motion":1.00271542,"eccentricity":0.0004843,"inclination_deg":2.3639,"raan_deg":81.1674,"arg_perigee_deg":354.5962,"mean_anomaly_deg":148.4373,"bstar":0,"rev_number":5115,"period_min":1436.1003842945,"perigee_km":35766.242670369,"apogee_km":35807.08349573,"semimajor_km":42164.800083049,"source":"CELESTRAK","updated_at":"2026-05-25T13:38:14.325518Z"}}